Time,TemperatureF,DewpointF,PressureIn,WindDirection,WindDirectionDegrees,WindSpeedMPH,WindSpeedGustMPH,Humidity,HourlyPrecipIn,Conditions,Clouds,dailyrainin,SolarRadiationWatts/m^2,SoftwareType,DateUTC
2013-05-02 00:01:00,33.0,32.0,30.49,North,355,0.0,0.0,96,0.00,-SN,,0.00,0.0,WeatherDisplay:10.37,2013-05-02 05:01:00,
2013-05-02 00:06:00,33.0,31.7,30.49,NNE,26,0.0,0.0,95,0.00,-SN,,0.00,0.0,WeatherDisplay:10.37,2013-05-02 05:06:00,
2013-05-02 00:11:00,32.9,31.6,30.48,NE,44,0.0,0.0,95,0.00,-SN,,0.00,0.0,WeatherDisplay:10.37,2013-05-02 05:11:00,
2013-05-02 00:16:00,32.9,31.6,30.49,NNW,341,0.0,0.0,95,0.00,-SN,,0.00,0.0,WeatherDisplay:10.37,2013-05-02 05:16:00,
2013-05-02 00:21:00,32.9,31.6,30.49,South,180,0.0,0.0,95,0.00,-SN,,0.00,0.0,WeatherDisplay:10.37,2013-05-02 05:21:00,
2013-05-02 00:26:00,32.9,31.6,30.48,South,180,0.0,0.0,95,0.00,-SN,,0.00,0.0,WeatherDisplay:10.37,2013-05-02 05:26:00,
2013-05-02 00:31:00,32.9,31.6,30.48,NNW,347,0.0,0.0,95,0.00,-SN,,0.00,0.0,WeatherDisplay:10.37,2013-05-02 05:31:00,
2013-05-02 00:36:00,32.8,31.5,30.49,West,275,0.0,0.0,95,0.00,-SN,,0.00,0.0,WeatherDisplay:10.37,2013-05-02 05:36:00,
2013-05-02 00:41:00,32.9,31.6,30.49,North,5,0.0,0.0,95,0.00,-SN,,0.00,0.0,WeatherDisplay:10.37,2013-05-02 05:41:00,
2013-05-02 00:46:00,32.9,31.6,30.49,NNW,332,0.0,0.0,95,0.00,-SN,,0.00,0.0,WeatherDisplay:10.37,2013-05-02 05:46:00,
2013-05-02 00:51:00,32.8,31.5,30.50,NW,311,0.0,0.0,95,0.00,-SN,,0.00,0.0,WeatherDisplay:10.37,2013-05-02 05:51:00,
2013-05-02 00:56:00,32.8,31.5,30.50,WNW,301,0.0,0.0,95,0.00,-SN,,0.00,0.0,WeatherDisplay:10.37,2013-05-02 05:56:00,
2013-05-02 01:01:00,32.8,31.5,30.49,NNE,19,0.0,0.0,95,0.00,-SN,,0.00,0.0,WeatherDisplay:10.37,2013-05-02 06:01:00,
2013-05-02 01:06:00,32.7,31.4,30.49,NE,53,0.0,0.0,95,0.00,-SN,,0.00,0.0,WeatherDisplay:10.37,2013-05-02 06:06:00,
2013-05-02 01:11:00,32.7,31.4,30.50,NNE,28,0.0,0.0,95,0.00,-SN,,0.00,0.0,WeatherDisplay:10.37,2013-05-02 06:11:00,
2013-05-02 01:16:00,32.6,31.3,30.51,NNW,347,0.0,0.0,95,0.00,-SN,,0.00,0.0,WeatherDisplay:10.37,2013-05-02 06:16:00,
2013-05-02 01:21:00,32.6,31.3,30.51,NNW,348,0.0,0.0,95,0.00,-SN,,0.00,0.0,WeatherDisplay:10.37,2013-05-02 06:21:00,
2013-05-02 01:26:00,32.5,31.2,30.52,NNW,342,0.0,0.0,95,0.00,-SN,,0.00,0.0,WeatherDisplay:10.37,2013-05-02 06:26:00,
2013-05-02 01:31:00,32.5,31.2,30.52,North,5,0.0,0.0,95,0.00,-SN,,0.00,0.0,WeatherDisplay:10.37,2013-05-02 06:31:00,
2013-05-02 01:36:00,32.5,31.2,30.51,North,5,0.0,0.0,95,0.00,-SN,,0.00,0.0,WeatherDisplay:10.37,2013-05-02 06:36:00,
2013-05-02 01:41:00,32.5,31.2,30.51,North,5,0.0,0.0,95,0.00,-SN,,0.00,0.0,WeatherDisplay:10.37,2013-05-02 06:41:00,
2013-05-02 01:46:00,32.4,31.1,30.51,NE,37,0.0,0.0,95,0.00,-SN,,0.00,0.0,WeatherDisplay:10.37,2013-05-02 06:46:00,
2013-05-02 01:51:00,32.4,31.1,30.51,NE,37,0.0,0.0,95,0.00,-SN,,0.00,0.0,WeatherDisplay:10.37,2013-05-02 06:51:00,
2013-05-02 01:56:00,32.4,31.1,30.51,East,86,0.0,0.0,95,0.00,-SN,,0.00,0.0,WeatherDisplay:10.37,2013-05-02 06:56:00,
2013-05-02 02:01:00,32.3,31.0,30.50,NNE,30,0.0,0.0,95,0.00,,,0.00,0.0,WeatherDisplay:10.37,2013-05-02 07:01:00,
2013-05-02 02:06:00,32.2,30.9,30.51,NE,53,0.0,0.0,95,0.00,,,0.00,0.0,WeatherDisplay:10.37,2013-05-02 07:06:00,
2013-05-02 02:11:00,32.1,30.8,30.51,ENE,65,0.0,0.0,95,0.00,,,0.00,0.0,WeatherDisplay:10.37,2013-05-02 07:11:00,
2013-05-02 02:17:00,32.0,30.7,30.51,NE,55,0.0,0.0,95,0.00,,,0.00,0.0,WeatherDisplay:10.37,2013-05-02 07:17:00,
2013-05-02 02:22:00,32.0,30.7,30.51,NNE,22,0.0,0.0,95,0.00,,,0.00,0.0,WeatherDisplay:10.37,2013-05-02 07:22:00,
2013-05-02 02:27:00,32.0,30.7,30.52,North,5,0.0,0.0,95,0.00,,,0.00,0.0,WeatherDisplay:10.37,2013-05-02 07:27:00,
2013-05-02 02:32:00,31.9,30.6,30.52,North,5,0.0,0.0,95,0.00,,,0.00,0.0,WeatherDisplay:10.37,2013-05-02 07:32:00,
2013-05-02 02:37:00,31.8,30.5,30.52,North,5,0.0,0.0,95,0.00,,,0.00,0.0,WeatherDisplay:10.37,2013-05-02 07:37:00,
2013-05-02 02:42:00,31.8,30.5,30.53,North,351,0.0,0.0,95,0.00,,,0.00,0.0,WeatherDisplay:10.37,2013-05-02 07:42:00,
2013-05-02 02:47:00,31.7,30.4,30.52,North,351,0.0,0.0,95,0.00,,,0.00,0.0,WeatherDisplay:10.37,2013-05-02 07:47:00,
2013-05-02 02:52:00,31.6,30.3,30.52,NE,38,0.0,0.0,95,0.00,,,0.00,0.0,WeatherDisplay:10.37,2013-05-02 07:52:00,
2013-05-02 02:57:00,31.6,30.3,30.52,NE,40,0.0,0.0,95,0.00,,,0.00,0.0,WeatherDisplay:10.37,2013-05-02 07:57:00,
2013-05-02 03:02:00,31.5,30.2,30.52,NE,53,0.0,0.0,95,0.00,,,0.00,0.0,WeatherDisplay:10.37,2013-05-02 08:02:00,
2013-05-02 03:07:00,31.4,30.1,30.52,NNE,27,0.0,0.0,95,0.00,,,0.00,0.0,WeatherDisplay:10.37,2013-05-02 08:07:00,
2013-05-02 03:12:00,31.3,30.0,30.52,NE,45,0.0,0.0,95,0.00,,,0.00,0.0,WeatherDisplay:10.37,2013-05-02 08:12:00,
2013-05-02 03:17:00,31.2,29.9,30.51,NE,36,0.0,0.0,95,0.00,,,0.00,0.0,WeatherDisplay:10.37,2013-05-02 08:17:00,
2013-05-02 03:22:00,31.1,29.8,30.50,NNE,15,0.0,0.0,95,0.00,,,0.00,0.0,WeatherDisplay:10.37,2013-05-02 08:22:00,
2013-05-02 03:27:00,31.0,29.7,30.50,NE,44,0.0,0.0,95,0.00,,,0.00,0.0,WeatherDisplay:10.37,2013-05-02 08:27:00,
2013-05-02 03:32:00,31.0,29.7,30.50,NNE,29,0.0,0.0,95,0.00,,,0.00,0.0,WeatherDisplay:10.37,2013-05-02 08:32:00,
2013-05-02 03:37:00,30.9,29.6,30.50,ENE,70,0.0,0.0,95,0.00,,,0.00,0.0,WeatherDisplay:10.37,2013-05-02 08:37:00,
2013-05-02 03:42:00,30.9,29.6,30.50,ENE,70,0.0,0.0,95,0.00,,,0.00,0.0,WeatherDisplay:10.37,2013-05-02 08:42:00,
2013-05-02 03:47:00,30.8,29.5,30.50,NNE,26,0.0,0.0,95,0.00,,,0.00,0.0,WeatherDisplay:10.37,2013-05-02 08:47:00,
2013-05-02 03:52:00,30.8,29.5,30.50,East,81,0.0,0.0,95,0.00,,,0.00,0.0,WeatherDisplay:10.37,2013-05-02 08:52:00,
2013-05-02 03:57:00,30.8,29.5,30.50,East,81,0.0,0.0,95,0.00,,,0.00,0.0,WeatherDisplay:10.37,2013-05-02 08:57:00,
2013-05-02 04:02:00,30.8,29.5,30.51,NE,46,0.0,0.0,95,0.00,-SN,,0.00,0.0,WeatherDisplay:10.37,2013-05-02 09:02:00,
2013-05-02 04:07:00,30.8,29.5,30.51,NNE,31,0.0,0.0,95,0.00,-SN,,0.00,0.0,WeatherDisplay:10.37,2013-05-02 09:07:00,
2013-05-02 04:12:00,30.9,29.6,30.50,NNE,31,0.0,0.0,95,0.00,-SN,,0.00,0.0,WeatherDisplay:10.37,2013-05-02 09:12:00,
2013-05-02 04:17:00,30.9,29.6,30.51,NNE,26,0.0,0.0,95,0.00,-SN,,0.00,0.0,WeatherDisplay:10.37,2013-05-02 09:17:00,
2013-05-02 04:22:00,30.9,29.6,30.51,NNE,26,0.0,0.0,95,0.00,-SN,,0.00,0.0,WeatherDisplay:10.37,2013-05-02 09:22:00,
2013-05-02 04:27:00,30.9,29.6,30.52,NNE,24,0.0,0.0,95,0.00,-SN,,0.00,0.0,WeatherDisplay:10.37,2013-05-02 09:27:00,
2013-05-02 04:32:00,30.9,29.6,30.52,NNE,15,0.0,0.0,95,0.00,-SN,,0.00,0.0,WeatherDisplay:10.37,2013-05-02 09:32:00,
2013-05-02 04:37:00,30.9,29.6,30.51,North,11,0.0,0.0,95,0.00,-SN,,0.00,0.0,WeatherDisplay:10.37,2013-05-02 09:37:00,
2013-05-02 04:42:00,30.9,29.6,30.52,North,9,0.0,0.0,95,0.00,-SN,,0.00,0.0,WeatherDisplay:10.37,2013-05-02 09:42:00,
2013-05-02 04:47:00,30.9,29.6,30.52,North,9,0.0,0.0,95,0.00,-SN,,0.00,0.0,WeatherDisplay:10.37,2013-05-02 09:47:00,
2013-05-02 04:52:00,30.9,29.6,30.51,North,10,0.0,0.0,95,0.00,-SN,,0.00,0.0,WeatherDisplay:10.37,2013-05-02 09:52:00,
2013-05-02 04:57:00,30.8,29.5,30.51,North,10,0.0,0.0,95,0.00,-SN,,0.00,0.0,WeatherDisplay:10.37,2013-05-02 09:57:00,
2013-05-02 05:02:00,30.8,29.5,30.51,North,10,0.0,0.0,95,0.00,-SN,,0.00,0.0,WeatherDisplay:10.37,2013-05-02 10:02:00,
2013-05-02 05:07:00,30.8,29.5,30.51,North,10,0.0,0.0,95,0.00,-SN,,0.00,0.0,WeatherDisplay:10.37,2013-05-02 10:07:00,
2013-05-02 05:12:00,30.8,29.5,30.51,North,9,0.0,0.0,95,0.00,-SN,,0.00,0.0,WeatherDisplay:10.37,2013-05-02 10:12:00,
2013-05-02 05:17:00,30.8,29.5,30.51,North,9,0.0,0.0,95,0.00,,,0.00,0.0,WeatherDisplay:10.37,2013-05-02 10:17:00,
2013-05-02 05:22:00,30.8,29.5,30.51,North,9,0.0,0.0,95,0.00,,,0.00,0.0,WeatherDisplay:10.37,2013-05-02 10:22:00,
2013-05-02 05:27:00,30.7,29.4,30.50,North,9,0.0,0.0,95,0.00,,,0.00,0.0,WeatherDisplay:10.37,2013-05-02 10:27:00,
2013-05-02 05:32:00,30.7,29.4,30.51,North,9,0.0,0.0,95,0.00,,,0.00,0.0,WeatherDisplay:10.37,2013-05-02 10:32:00,
2013-05-02 05:37:00,30.7,29.4,30.50,North,9,0.0,0.0,95,0.00,,,0.00,0.0,WeatherDisplay:10.37,2013-05-02 10:37:00,
2013-05-02 05:42:00,30.6,29.3,30.50,North,9,0.0,0.0,95,0.00,,,0.00,0.0,WeatherDisplay:10.37,2013-05-02 10:42:00,
2013-05-02 05:47:00,30.6,29.3,30.51,North,9,0.0,0.0,95,0.00,,,0.00,0.0,WeatherDisplay:10.37,2013-05-02 10:47:00,
2013-05-02 05:52:00,30.6,29.3,30.50,North,9,0.0,0.0,95,0.00,,,0.00,0.0,WeatherDisplay:10.37,2013-05-02 10:52:00,
2013-05-02 05:57:00,30.6,29.3,30.51,North,9,0.0,0.0,95,0.00,,,0.00,0.0,WeatherDisplay:10.37,2013-05-02 10:57:00,
2013-05-02 06:02:00,30.5,29.2,30.52,North,9,0.0,0.0,95,0.00,OVC,,0.00,0.0,WeatherDisplay:10.37,2013-05-02 11:02:00,
2013-05-02 06:07:00,30.5,29.2,30.52,North,9,0.0,0.0,95,0.00,OVC,,0.00,0.0,WeatherDisplay:10.37,2013-05-02 11:07:00,
2013-05-02 06:12:00,30.5,29.2,30.53,NE,54,0.0,0.0,95,0.00,OVC,,0.00,0.0,WeatherDisplay:10.37,2013-05-02 11:12:00,
2013-05-02 06:17:00,30.6,29.3,30.53,North,9,0.0,0.0,95,0.00,OVC,,0.00,0.0,WeatherDisplay:10.37,2013-05-02 11:17:00,
2013-05-02 06:22:00,30.6,29.3,30.53,North,9,0.0,0.0,95,0.00,OVC,,0.00,0.0,WeatherDisplay:10.37,2013-05-02 11:22:00,
2013-05-02 06:27:00,30.6,29.3,30.53,North,9,0.0,0.0,95,0.00,OVC,,0.00,0.0,WeatherDisplay:10.37,2013-05-02 11:27:00,
2013-05-02 06:32:00,30.6,29.3,30.53,North,9,0.0,0.0,95,0.00,OVC,,0.00,0.0,WeatherDisplay:10.37,2013-05-02 11:32:00,
2013-05-02 06:37:00,30.6,29.3,30.53,North,9,0.0,0.0,95,0.00,OVC,,0.00,0.0,WeatherDisplay:10.37,2013-05-02 11:37:00,
2013-05-02 06:42:00,30.6,29.3,30.53,North,9,0.0,0.0,95,0.00,OVC,,0.00,0.0,WeatherDisplay:10.37,2013-05-02 11:42:00,
2013-05-02 06:47:00,30.6,29.3,30.52,North,9,0.0,0.0,95,0.01,RA,,0.01,0.0,WeatherDisplay:10.37,2013-05-02 11:47:00,
2013-05-02 06:52:00,30.6,29.3,30.53,North,9,0.0,0.0,95,0.01,RA,,0.01,0.0,WeatherDisplay:10.37,2013-05-02 11:52:00,
2013-05-02 06:57:00,30.6,29.3,30.52,North,9,0.0,0.0,95,0.01,,,0.01,0.0,WeatherDisplay:10.37,2013-05-02 11:57:00,
2013-05-02 07:02:00,30.7,29.4,30.52,North,9,0.0,0.0,95,0.01, +SN,,0.01,0.0,WeatherDisplay:10.37,2013-05-02 12:02:00,
2013-05-02 07:07:00,30.8,29.5,30.52,North,9,0.0,0.0,95,0.02, +SN,,0.02,0.0,WeatherDisplay:10.37,2013-05-02 12:07:00,
2013-05-02 07:12:00,30.9,29.6,30.52,North,9,0.0,0.0,95,0.03, +SN,,0.03,0.0,WeatherDisplay:10.37,2013-05-02 12:12:00,
2013-05-02 07:17:00,31.0,29.7,30.52,North,9,0.0,0.0,95,0.04, +SN,,0.04,0.0,WeatherDisplay:10.37,2013-05-02 12:17:00,
2013-05-02 07:22:00,31.1,29.8,30.52,North,9,0.0,0.0,95,0.05, +SN,,0.05,0.0,WeatherDisplay:10.37,2013-05-02 12:22:00,
2013-05-02 07:27:00,31.2,29.9,30.52,North,9,0.0,0.0,95,0.05, +SN,,0.05,0.0,WeatherDisplay:10.37,2013-05-02 12:27:00,
2013-05-02 07:32:00,31.3,30.0,30.52,North,9,0.0,0.0,95,0.06, +SN,,0.06,0.0,WeatherDisplay:10.37,2013-05-02 12:32:00,
2013-05-02 07:37:00,31.5,30.2,30.52,North,9,0.0,0.0,95,0.07, +SN,,0.07,0.0,WeatherDisplay:10.37,2013-05-02 12:37:00,
2013-05-02 07:42:00,31.5,30.2,30.52,North,9,0.0,0.0,95,0.07, +SN,,0.07,0.0,WeatherDisplay:10.37,2013-05-02 12:42:00,
2013-05-02 07:47:00,31.5,30.0,30.52,North,9,0.0,0.0,94,0.07, +SN,,0.08,0.0,WeatherDisplay:10.37,2013-05-02 12:47:00,
2013-05-02 07:53:00,31.5,30.0,30.52,North,9,0.0,0.0,94,0.07, +SN,,0.08,0.0,WeatherDisplay:10.37,2013-05-02 12:53:00,
2013-05-02 07:58:00,31.5,30.0,30.52,North,9,0.0,0.0,94,0.08, +SN,,0.09,0.0,WeatherDisplay:10.37,2013-05-02 12:58:00,
2013-05-02 08:03:00,31.4,29.9,30.52,North,9,0.0,0.0,94,0.08, +SN,,0.09,0.0,WeatherDisplay:10.37,2013-05-02 13:03:00,
2013-05-02 08:08:00,31.5,30.0,30.52,North,9,0.0,0.0,94,0.08, +SN,,0.10,0.0,WeatherDisplay:10.37,2013-05-02 13:08:00,
2013-05-02 08:13:00,31.5,30.0,30.52,North,9,0.0,0.0,94,0.08, +SN,,0.11,0.0,WeatherDisplay:10.37,2013-05-02 13:13:00,
2013-05-02 08:18:00,31.5,30.0,30.52,North,9,0.0,0.0,94,0.08, +SN,,0.12,0.0,WeatherDisplay:10.37,2013-05-02 13:18:00,
2013-05-02 08:23:00,31.5,30.0,30.52,North,9,0.0,0.0,94,0.07, +SN,,0.12,0.0,WeatherDisplay:10.37,2013-05-02 13:23:00,
2013-05-02 08:28:00,31.5,30.0,30.52,North,9,0.0,0.0,94,0.07, +SN,,0.13,0.0,WeatherDisplay:10.37,2013-05-02 13:28:00,
2013-05-02 08:33:00,31.4,29.9,30.52,North,9,0.0,0.0,94,0.07,RA,,0.13,0.0,WeatherDisplay:10.37,2013-05-02 13:33:00,
2013-05-02 09:07:00,31.1,29.6,30.54,North,9,0.0,0.0,94,0.04,RA,,0.15,0.0,WeatherDisplay:10.37,2013-05-02 14:07:00,
2013-05-02 09:12:00,31.1,29.6,30.54,North,9,0.0,0.0,94,0.04,RA,,0.15,0.0,WeatherDisplay:10.37,2013-05-02 14:12:00,
2013-05-02 09:17:00,31.1,29.6,30.54,North,9,0.0,0.0,94,0.03,-SN,,0.15,0.0,WeatherDisplay:10.37,2013-05-02 14:17:00,
2013-05-02 09:22:00,31.2,29.7,30.54,North,9,0.0,0.0,94,0.03,-SN,,0.15,0.0,WeatherDisplay:10.37,2013-05-02 14:22:00,
2013-05-02 09:27:00,31.2,29.7,30.54,North,9,0.0,0.0,94,0.03,-SN,,0.16,0.0,WeatherDisplay:10.37,2013-05-02 14:27:00,
2013-05-02 09:32:00,31.2,29.9,30.54,North,9,0.0,0.0,95,0.04,-SN,,0.17,0.0,WeatherDisplay:10.37,2013-05-02 14:32:00,
2013-05-02 09:37:00,31.3,30.0,30.54,North,9,0.0,0.0,95,0.04,-SN,,0.17,0.0,WeatherDisplay:10.37,2013-05-02 14:37:00,
2013-05-02 09:42:00,31.4,30.1,30.54,North,9,0.0,0.0,95,0.04,-SN,,0.18,0.0,WeatherDisplay:10.37,2013-05-02 14:42:00,
2013-05-02 09:47:00,31.5,30.2,30.54,North,9,0.0,0.0,95,0.04,-SN,,0.19,0.0,WeatherDisplay:10.37,2013-05-02 14:47:00,
2013-05-02 09:52:00,31.6,30.3,30.53,North,9,0.0,0.0,95,0.05,-SN,,0.19,5.0,WeatherDisplay:10.37,2013-05-02 14:52:00,
2013-05-02 09:57:00,31.6,30.3,30.54,North,9,0.0,0.0,95,0.05,-SN,,0.19,5.0,WeatherDisplay:10.37,2013-05-02 14:57:00,
2013-05-02 10:02:00,31.7,30.2,30.54,North,9,0.0,0.0,94,0.06,-SN,,0.20,5.0,WeatherDisplay:10.37,2013-05-02 15:02:00,
2013-05-02 10:07:00,31.7,30.2,30.54,North,9,0.0,0.0,94,0.06,-SN,,0.21,5.0,WeatherDisplay:10.37,2013-05-02 15:07:00,
2013-05-02 10:12:00,31.8,30.3,30.54,North,9,0.0,0.0,94,0.06,-SN,,0.21,5.0,WeatherDisplay:10.37,2013-05-02 15:12:00,
2013-05-02 10:17:00,31.7,30.2,30.54,East,86,0.0,0.0,94,0.07,-SN,,0.22,7.0,WeatherDisplay:10.37,2013-05-02 15:17:00,
2013-05-02 10:22:00,31.6,30.1,30.55,North,9,0.0,0.0,94,0.07,-SN,,0.22,9.0,WeatherDisplay:10.37,2013-05-02 15:22:00,
2013-05-02 10:27:00,31.4,29.9,30.54,NNE,24,0.0,0.0,94,0.07,-SN,,0.23,9.0,WeatherDisplay:10.37,2013-05-02 15:27:00,
2013-05-02 10:32:00,31.4,29.9,30.54,NE,46,0.0,0.0,94,0.06,-SN,,0.23,9.0,WeatherDisplay:10.37,2013-05-02 15:32:00,
2013-05-02 10:37:00,31.3,29.8,30.54,ENE,71,0.0,0.0,94,0.07,-SN,,0.24,9.0,WeatherDisplay:10.37,2013-05-02 15:37:00,
2013-05-02 10:42:00,31.3,29.8,30.55,NE,40,0.0,0.0,94,0.07,-SN,,0.25,11.0,WeatherDisplay:10.37,2013-05-02 15:42:00,
2013-05-02 10:47:00,31.4,29.9,30.55,North,350,0.0,0.0,94,0.06,-SN,,0.25,11.0,WeatherDisplay:10.37,2013-05-02 15:47:00,
2013-05-02 10:52:00,31.6,30.1,30.55,NE,42,0.0,0.0,94,0.07,-SN,,0.26,12.0,WeatherDisplay:10.37,2013-05-02 15:52:00,
2013-05-02 10:57:00,31.7,30.2,30.55,East,93,0.0,0.0,94,0.08,-SN,,0.27,14.0,WeatherDisplay:10.37,2013-05-02 15:57:00,
2013-05-02 11:02:00,31.9,30.4,30.55,NNE,17,0.0,0.0,94,0.07,-SN,,0.27,18.0,WeatherDisplay:10.37,2013-05-02 16:02:00,
2013-05-02 11:07:00,32.2,30.7,30.55,ENE,62,0.0,0.0,94,0.07,-SN,,0.28,21.0,WeatherDisplay:10.37,2013-05-02 16:07:00,
2013-05-02 11:12:00,32.4,30.9,30.54,NE,46,0.0,0.0,94,0.08,-SN,,0.29,18.0,WeatherDisplay:10.37,2013-05-02 16:12:00,
2013-05-02 11:17:00,32.5,31.0,30.54,NNE,32,0.0,0.0,94,0.07,-SN,,0.29,18.0,WeatherDisplay:10.37,2013-05-02 16:17:00,
2013-05-02 11:22:00,32.5,31.0,30.55,NNE,33,0.0,0.0,94,0.08,-SN,,0.30,16.0,WeatherDisplay:10.37,2013-05-02 16:22:00,
2013-05-02 11:27:00,32.5,31.0,30.55,NE,55,0.0,0.0,94,0.07,-SN,,0.31,16.0,WeatherDisplay:10.37,2013-05-02 16:27:00,
2013-05-02 11:32:00,32.5,31.0,30.55,NE,55,0.0,0.0,94,0.08,-SN,,0.31,16.0,WeatherDisplay:10.37,2013-05-02 16:32:00,
2013-05-02 11:37:00,32.4,30.6,30.55,NE,36,0.0,0.0,93,0.08,-SN,,0.32,16.0,WeatherDisplay:10.37,2013-05-02 16:37:00,
2013-05-02 11:42:00,32.5,31.0,30.55,NNE,15,0.0,0.0,94,0.08,-SN,,0.33,19.0,WeatherDisplay:10.37,2013-05-02 16:42:00,
2013-05-02 11:47:00,32.5,30.7,30.55,NE,54,0.0,0.0,93,0.09,-SN,,0.34,16.0,WeatherDisplay:10.37,2013-05-02 16:47:00,
2013-05-02 11:52:00,32.6,30.8,30.55,NE,49,0.0,0.0,93,0.08,-SN,,0.34,19.0,WeatherDisplay:10.37,2013-05-02 16:52:00,
2013-05-02 11:57:00,32.9,31.1,30.54,NE,42,0.0,0.0,93,0.08,-SN,,0.35,19.0,WeatherDisplay:10.37,2013-05-02 16:57:00,
2013-05-02 12:02:00,32.9,31.1,30.54,ENE,57,0.0,0.0,93,0.09,-SN,,0.36,16.0,WeatherDisplay:10.37,2013-05-02 17:02:00,
2013-05-02 12:07:00,32.8,30.7,30.53,NNE,14,0.0,0.0,92,0.09,-SN,,0.37,21.0,WeatherDisplay:10.37,2013-05-02 17:07:00,
2013-05-02 12:12:00,32.7,30.6,30.53,NNE,15,0.0,0.0,92,0.08,-SN,,0.37,21.0,WeatherDisplay:10.37,2013-05-02 17:12:00,
2013-05-02 12:17:00,32.6,30.5,30.53,North,355,0.0,0.0,92,0.09,-SN,,0.38,18.0,WeatherDisplay:10.37,2013-05-02 17:17:00,
2013-05-02 12:22:00,32.7,30.6,30.53,ENE,70,0.0,0.0,92,0.08,-SN,,0.38,19.0,WeatherDisplay:10.37,2013-05-02 17:22:00,
2013-05-02 12:27:00,32.8,30.7,30.53,NNE,30,0.0,0.0,92,0.09,-SN,,0.39,18.0,WeatherDisplay:10.37,2013-05-02 17:27:00,
2013-05-02 12:32:00,32.6,30.3,30.53,NNE,19,0.0,0.0,91,0.09,-SN,,0.40,16.0,WeatherDisplay:10.37,2013-05-02 17:32:00,
2013-05-02 12:37:00,32.4,30.3,30.52,NNE,13,0.0,0.0,92,0.09,-SN,,0.41,18.0,WeatherDisplay:10.37,2013-05-02 17:37:00,
2013-05-02 12:42:00,32.5,30.4,30.52,NE,44,0.0,0.0,92,0.09,-SN,,0.42,14.0,WeatherDisplay:10.37,2013-05-02 17:42:00,
2013-05-02 12:47:00,32.5,30.4,30.52,NE,36,0.0,0.0,92,0.09,-SN,,0.43,12.0,WeatherDisplay:10.37,2013-05-02 17:47:00,
2013-05-02 12:52:00,32.5,30.4,30.52,NNW,342,0.0,0.0,92,0.09,-SN,,0.43,12.0,WeatherDisplay:10.37,2013-05-02 17:52:00,
2013-05-02 12:57:00,32.4,30.3,30.52,NE,39,0.0,0.0,92,0.08,-SN,,0.44,12.0,WeatherDisplay:10.37,2013-05-02 17:57:00,
2013-05-02 13:02:00,32.3,30.2,30.52,NE,55,0.0,0.0,92,0.08,-SN,,0.45,14.0,WeatherDisplay:10.37,2013-05-02 18:02:00,
2013-05-02 13:07:00,32.4,30.6,30.53,NE,53,0.0,0.0,93,0.08,-SN,,0.45,18.0,WeatherDisplay:10.37,2013-05-02 18:07:00,
2013-05-02 13:12:00,32.5,30.7,30.54,ESE,106,0.0,0.0,93,0.09,-SN,,0.46,18.0,WeatherDisplay:10.37,2013-05-02 18:12:00,
2013-05-02 13:17:00,32.6,30.5,30.54,ENE,59,0.0,0.0,92,0.09,-SN,,0.47,16.0,WeatherDisplay:10.37,2013-05-02 18:17:00,
2013-05-02 13:22:00,32.9,31.1,30.54,NNE,28,0.0,0.0,93,0.09,-SN,,0.48,21.0,WeatherDisplay:10.37,2013-05-02 18:22:00,
2013-05-02 13:27:00,32.9,30.8,30.54,ENE,75,0.0,0.0,92,0.09,-SN,,0.48,23.0,WeatherDisplay:10.37,2013-05-02 18:27:00,
2013-05-02 13:32:00,33.1,31.0,30.54,ENE,75,0.0,0.0,92,0.09,-SN,,0.49,25.0,WeatherDisplay:10.37,2013-05-02 18:32:00,
2013-05-02 13:37:00,33.2,31.1,30.53,ESE,111,0.0,0.0,92,0.08,-SN,,0.49,23.0,WeatherDisplay:10.37,2013-05-02 18:37:00,
2013-05-02 13:42:00,33.1,31.0,30.53,ESE,113,0.0,0.0,92,0.08,-SN,,0.50,21.0,WeatherDisplay:10.37,2013-05-02 18:42:00,
2013-05-02 13:47:00,33.2,31.4,30.54,NNE,32,0.0,0.0,93,0.07,-SN,,0.50,19.0,WeatherDisplay:10.37,2013-05-02 18:47:00,
2013-05-02 13:52:00,33.1,31.0,30.54,NE,49,0.0,0.0,92,0.08,-SN,,0.51,21.0,WeatherDisplay:10.37,2013-05-02 18:52:00,
2013-05-02 13:57:00,33.0,30.9,30.53,NE,44,0.0,0.0,92,0.09,-SN,,0.52,30.0,WeatherDisplay:10.37,2013-05-02 18:57:00,
2013-05-02 14:02:00,32.9,30.8,30.53,NNE,28,0.0,0.0,92,0.09,-SN,,0.53,28.0,WeatherDisplay:10.37,2013-05-02 19:02:00,
2013-05-02 14:07:00,33.0,31.2,30.54,NNE,19,0.0,0.0,93,0.08,-SN,,0.53,21.0,WeatherDisplay:10.37,2013-05-02 19:07:00,
2013-05-02 14:12:00,33.0,30.9,30.54,ENE,61,6.9,6.9,92,0.08,-SN,,0.54,32.0,WeatherDisplay:10.37,2013-05-02 19:12:00,
2013-05-02 14:17:00,32.7,30.4,30.53,NNE,28,3.5,3.5,91,0.08,-SN,,0.55,26.0,WeatherDisplay:10.37,2013-05-02 19:17:00,
2013-05-02 14:33:00,32.8,30.7,30.53,NE,40,5.0,5.0,92,0.08,-SN,,0.57,18.0,WeatherDisplay:10.37,2013-05-02 19:33:00,
2013-05-02 14:38:00,33.0,31.2,30.53,NE,34,1.1,1.1,93,0.08,-SN,,0.57,19.0,WeatherDisplay:10.37,2013-05-02 19:38:00,
2013-05-02 14:43:00,33.3,31.2,30.53,NNE,29,3.5,3.5,92,0.08,-SN,,0.58,21.0,WeatherDisplay:10.37,2013-05-02 19:43:00,
2013-05-02 14:48:00,33.3,31.0,30.53,ENE,75,2.3,2.3,91,0.09,-SN,,0.59,18.0,WeatherDisplay:10.37,2013-05-02 19:48:00,
2013-05-02 14:53:00,33.1,30.8,30.54,ENE,76,6.9,6.9,91,0.08,-SN,,0.59,16.0,WeatherDisplay:10.37,2013-05-02 19:53:00,
2013-05-02 14:58:00,32.9,30.3,30.54,NNE,29,3.5,3.5,90,0.08,-SN,,0.60,16.0,WeatherDisplay:10.37,2013-05-02 19:58:00,
2013-05-02 15:03:00,32.8,30.2,30.54,East,96,2.3,2.3,90,0.07,-SN,,0.60,16.0,WeatherDisplay:10.37,2013-05-02 20:03:00,
2013-05-02 15:08:00,32.8,30.2,30.53,North,5,2.3,2.3,90,0.08,-SN,,0.61,16.0,WeatherDisplay:10.37,2013-05-02 20:08:00,
2013-05-02 17:09:00,32.0,29.9,30.51,ENE,67,1.1,2.3,92,0.01,-SN,,0.62,14.0,WeatherDisplay:10.37,2013-05-02 22:09:00,
2013-05-02 17:14:00,32.1,30.3,30.51,NE,42,2.3,2.3,93,0.02,-SN,,0.63,12.0,WeatherDisplay:10.37,2013-05-02 22:14:00,
2013-05-02 17:19:00,32.1,30.0,30.51,ENE,65,1.1,1.1,92,0.02,-SN,,0.63,12.0,WeatherDisplay:10.37,2013-05-02 22:19:00,
2013-05-02 17:24:00,32.3,30.2,30.51,ENE,63,2.3,2.3,92,0.02,-SN,,0.63,12.0,WeatherDisplay:10.37,2013-05-02 22:24:00,
2013-05-02 17:29:00,32.3,30.5,30.51,NE,46,2.3,0.0,93,0.02,-SN,,0.64,11.0,WeatherDisplay:10.37,2013-05-02 22:29:00,
2013-05-02 17:34:00,32.4,30.3,30.51,NNW,339,1.1,1.1,92,0.03,-SN,,0.65,11.0,WeatherDisplay:10.37,2013-05-02 22:34:00,
2013-05-02 17:39:00,32.4,30.3,30.51,NNE,29,3.5,3.5,92,0.03,-SN,,0.65,9.0,WeatherDisplay:10.37,2013-05-02 22:39:00,
2013-05-02 17:44:00,32.4,30.3,30.51,NNE,26,3.5,3.5,92,0.04,-SN,,0.66,9.0,WeatherDisplay:10.37,2013-05-02 22:44:00,
2013-05-02 17:49:00,32.3,30.0,30.51,NE,42,1.1,1.1,91,0.05,-SN,,0.67,11.0,WeatherDisplay:10.37,2013-05-02 22:49:00,
2013-05-02 17:54:00,32.2,29.9,30.51,NNE,28,3.5,3.5,91,0.05,-SN,,0.67,11.0,WeatherDisplay:10.37,2013-05-02 22:54:00,
2013-05-02 17:59:00,32.1,29.5,30.51,East,93,2.3,2.3,90,0.05,-SN,,0.67,9.0,WeatherDisplay:10.37,2013-05-02 22:59:00,
2013-05-02 18:04:00,32.0,29.7,30.51,ENE,75,1.1,1.1,91,0.05,-SN,,0.67,9.0,WeatherDisplay:10.37,2013-05-02 23:04:00,
2013-05-02 18:09:00,31.9,29.6,30.50,North,355,0.0,0.0,91,0.06,-SN,,0.68,7.0,WeatherDisplay:10.37,2013-05-02 23:09:00,
2013-05-02 18:14:00,32.0,29.9,30.50,North,5,3.0,3.0,92,0.05,-SN,,0.68,7.0,WeatherDisplay:10.37,2013-05-02 23:14:00,
2013-05-02 18:19:00,32.0,29.9,30.50,NNE,13,1.1,0.0,92,0.05,-SN,,0.69,7.0,WeatherDisplay:10.37,2013-05-02 23:19:00,
2013-05-02 18:24:00,32.0,29.7,30.50,NNE,23,1.1,1.1,91,0.06,-SN,,0.69,7.0,WeatherDisplay:10.37,2013-05-02 23:24:00,
2013-05-02 18:29:00,31.8,29.5,30.50,NE,51,3.5,3.5,91,0.05,-SN,,0.69,7.0,WeatherDisplay:10.37,2013-05-02 23:29:00,
2013-05-02 18:34:00,31.6,29.3,30.50,ENE,60,6.9,6.9,91,0.05,-SN,,0.70,7.0,WeatherDisplay:10.37,2013-05-02 23:34:00,
2013-05-02 18:39:00,31.5,29.2,30.50,ENE,68,3.5,3.5,91,0.06,-SN,,0.71,5.0,WeatherDisplay:10.37,2013-05-02 23:39:00,
2013-05-02 18:45:00,31.4,29.1,30.50,NE,37,3.5,3.5,91,0.05,-SN,,0.71,5.0,WeatherDisplay:10.37,2013-05-02 23:45:00,
2013-05-02 18:50:00,31.3,29.0,30.50,NE,54,3.5,3.5,91,0.04,OVC,,0.71,5.0,WeatherDisplay:10.37,2013-05-02 23:50:00,
2013-05-02 18:55:00,31.2,29.1,30.50,ENE,61,2.3,2.3,92,0.04,OVC,,0.71,5.0,WeatherDisplay:10.37,2013-05-02 23:55:00,
2013-05-02 19:00:00,31.1,29.0,30.50,East,83,2.3,2.3,92,0.05,RA,,0.72,0.0,WeatherDisplay:10.37,2013-05-03 00:00:00,
2013-05-02 19:05:00,31.1,29.0,30.50,ENE,63,2.3,2.3,92,0.05,RA,,0.72,0.0,WeatherDisplay:10.37,2013-05-03 00:05:00,
2013-05-02 19:10:00,31.0,28.9,30.50,NE,51,1.1,1.1,92,0.04,OVC,,0.72,0.0,WeatherDisplay:10.37,2013-05-03 00:10:00,
2013-05-02 19:15:00,31.1,29.0,30.50,NE,49,1.1,1.1,92,0.04,OVC,,0.72,0.0,WeatherDisplay:10.37,2013-05-03 00:15:00,
2013-05-02 19:20:00,31.1,29.0,30.49,NE,52,1.1,0.0,92,0.05,RA,,0.73,0.0,WeatherDisplay:10.37,2013-05-03 00:20:00,
2013-05-02 19:25:00,31.1,29.0,30.49,NE,40,2.3,2.3,92,0.04,RA,,0.73,0.0,WeatherDisplay:10.37,2013-05-03 00:25:00,
2013-05-02 19:30:00,31.2,29.1,30.49,ENE,66,2.3,2.3,92,0.04,OVC,,0.73,0.0,WeatherDisplay:10.37,2013-05-03 00:30:00,
2013-05-02 19:35:00,31.2,29.4,30.49,NE,53,1.1,0.0,93,0.03,OVC,,0.73,0.0,WeatherDisplay:10.37,2013-05-03 00:35:00,
2013-05-02 19:40:00,31.3,29.2,30.49,NE,53,0.0,0.0,92,0.02,OVC,,0.73,0.0,WeatherDisplay:10.37,2013-05-03 00:40:00,
2013-05-02 19:45:00,31.3,29.2,30.49,NE,38,2.3,0.0,92,0.02,OVC,,0.73,0.0,WeatherDisplay:10.37,2013-05-03 00:45:00,
2013-05-02 19:50:00,31.3,29.2,30.49,NE,40,1.1,0.0,92,0.02,OVC,,0.73,0.0,WeatherDisplay:10.37,2013-05-03 00:50:00,
2013-05-02 19:55:00,31.3,29.2,30.49,NE,40,0.0,0.0,92,0.03,RA,,0.74,0.0,WeatherDisplay:10.37,2013-05-03 00:55:00,
2013-05-02 20:00:00,31.2,29.1,30.49,NE,40,2.3,0.0,92,0.02,RA,,0.74,0.0,WeatherDisplay:10.37,2013-05-03 01:00:00,
2013-05-02 20:05:00,31.1,28.8,30.49,ENE,74,2.3,2.3,91,0.02,OVC,,0.74,0.0,WeatherDisplay:10.37,2013-05-03 01:05:00,
2013-05-02 20:10:00,30.9,28.6,30.49,ENE,59,3.5,3.5,91,0.02,OVC,,0.74,0.0,WeatherDisplay:10.37,2013-05-03 01:10:00,
2013-05-02 20:15:00,30.8,28.5,30.49,ENE,58,1.1,0.0,91,0.02,OVC,,0.74,0.0,WeatherDisplay:10.37,2013-05-03 01:15:00,
2013-05-02 20:20:00,30.7,28.7,30.49,NE,49,3.5,3.5,92,0.01,OVC,,0.74,0.0,WeatherDisplay:10.37,2013-05-03 01:20:00,
2013-05-02 20:25:00,30.6,28.3,30.48,NE,40,1.1,0.0,91,0.01,OVC,,0.74,0.0,WeatherDisplay:10.37,2013-05-03 01:25:00,
2013-05-02 20:30:00,30.6,28.3,30.48,East,96,2.3,2.3,91,0.01,OVC,,0.74,0.0,WeatherDisplay:10.37,2013-05-03 01:30:00,
2013-05-02 20:35:00,30.5,28.2,30.48,East,86,2.3,2.3,91,0.01,OVC,,0.74,0.0,WeatherDisplay:10.37,2013-05-03 01:35:00,
2013-05-02 20:40:00,30.5,28.2,30.48,NE,40,1.1,1.1,91,0.01,OVC,,0.74,0.0,WeatherDisplay:10.37,2013-05-03 01:40:00,
2013-05-02 20:45:00,30.5,28.2,30.48,NE,48,1.1,1.1,91,0.01,OVC,,0.74,0.0,WeatherDisplay:10.37,2013-05-03 01:45:00,
2013-05-02 20:50:00,30.5,28.2,30.49,NE,49,1.1,0.0,91,0.01,OVC,,0.74,0.0,WeatherDisplay:10.37,2013-05-03 01:50:00,
2013-05-02 20:55:00,30.4,28.1,30.49,ENE,61,3.5,3.5,91,0.00,OVC,,0.74,0.0,WeatherDisplay:10.37,2013-05-03 01:55:00,
2013-05-02 21:00:00,30.5,28.2,30.49,North,355,1.1,1.1,91,0.00,OVC,,0.74,0.0,WeatherDisplay:10.37,2013-05-03 02:00:00,
2013-05-02 21:05:00,30.5,28.2,30.49,ENE,61,1.1,1.1,91,0.00,OVC,,0.74,0.0,WeatherDisplay:10.37,2013-05-03 02:05:00,
2013-05-02 21:10:00,30.4,28.1,30.49,NE,46,3.5,3.5,91,0.00,OVC,,0.74,0.0,WeatherDisplay:10.37,2013-05-03 02:10:00,
2013-05-02 21:15:00,30.4,28.4,30.49,ENE,63,3.0,3.0,92,0.00,OVC,,0.74,0.0,WeatherDisplay:10.37,2013-05-03 02:15:00,
2013-05-02 21:20:00,30.4,28.4,30.49,ENE,62,2.3,2.3,92,0.00,OVC,,0.74,0.0,WeatherDisplay:10.37,2013-05-03 02:20:00,
2013-05-02 21:25:00,30.4,28.4,30.49,East,83,2.0,2.0,92,0.00,OVC,,0.74,0.0,WeatherDisplay:10.37,2013-05-03 02:25:00,
2013-05-02 21:30:00,30.3,28.3,30.49,East,90,2.3,0.0,92,0.00,OVC,,0.74,0.0,WeatherDisplay:10.37,2013-05-03 02:30:00,
2013-05-02 21:35:00,30.3,28.3,30.49,NE,53,2.3,0.0,92,0.00,OVC,,0.74,0.0,WeatherDisplay:10.37,2013-05-03 02:35:00,
2013-05-02 21:40:00,30.3,28.3,30.48,NE,53,1.1,1.1,92,0.00,OVC,,0.74,0.0,WeatherDisplay:10.37,2013-05-03 02:40:00,
2013-05-02 21:45:00,30.3,28.3,30.48,ENE,62,1.1,1.1,92,0.00,OVC,,0.74,0.0,WeatherDisplay:10.37,2013-05-03 02:45:00,
2013-05-02 21:50:00,30.4,28.4,30.48,NNE,20,1.1,0.0,92,0.00,OVC,,0.75,0.0,WeatherDisplay:10.37,2013-05-03 02:50:00,
2013-05-02 21:55:00,30.5,28.5,30.48,WNW,296,2.3,2.3,92,0.01,RA,,0.75,0.0,WeatherDisplay:10.37,2013-05-03 02:55:00,
2013-05-02 22:00:00,30.6,28.6,30.48,NNW,338,1.1,1.1,92,0.01,RA,,0.75,0.0,WeatherDisplay:10.37,2013-05-03 03:00:00,
2013-05-02 22:05:00,30.7,28.7,30.48,NE,45,1.1,1.1,92,0.01,OVC,,0.75,0.0,WeatherDisplay:10.37,2013-05-03 03:05:00,
2013-05-02 22:10:00,30.7,28.7,30.48,ENE,65,1.1,0.0,92,0.01,OVC,,0.75,0.0,WeatherDisplay:10.37,2013-05-03 03:10:00,
2013-05-02 22:15:00,30.7,28.7,30.48,NE,38,1.1,0.0,92,0.01,OVC,,0.75,0.0,WeatherDisplay:10.37,2013-05-03 03:15:00,
2013-05-02 22:20:00,30.8,28.8,30.48,NE,47,2.3,0.0,92,0.01,OVC,,0.75,0.0,WeatherDisplay:10.37,2013-05-03 03:20:00,
2013-05-02 22:25:00,30.8,28.8,30.48,NNE,26,1.1,1.1,92,0.01,OVC,,0.75,0.0,WeatherDisplay:10.37,2013-05-03 03:25:00,
2013-05-02 22:30:00,30.8,28.8,30.48,NE,48,2.3,2.3,92,0.01,OVC,,0.75,0.0,WeatherDisplay:10.37,2013-05-03 03:30:00,
2013-05-02 22:35:00,30.8,28.8,30.48,NE,45,2.3,2.3,92,0.01,OVC,,0.75,0.0,WeatherDisplay:10.37,2013-05-03 03:35:00,
2013-05-02 22:40:00,30.7,28.7,30.48,NE,35,3.5,3.5,92,0.01,OVC,,0.75,0.0,WeatherDisplay:10.37,2013-05-03 03:40:00,
2013-05-02 22:45:00,30.7,28.7,30.48,NE,48,1.1,1.1,92,0.01,OVC,,0.75,0.0,WeatherDisplay:10.37,2013-05-03 03:45:00,
2013-05-02 22:50:00,30.7,28.7,30.48,WNW,298,1.1,1.1,92,0.00,OVC,,0.75,0.0,WeatherDisplay:10.37,2013-05-03 03:50:00,
2013-05-02 22:55:00,30.7,28.7,30.47,NE,36,1.1,1.1,92,0.00,OVC,,0.75,0.0,WeatherDisplay:10.37,2013-05-03 03:55:00,
2013-05-02 23:00:00,30.7,28.7,30.48,NE,36,1.1,0.0,92,0.00,OVC,,0.75,0.0,WeatherDisplay:10.37,2013-05-03 04:00:00,
2013-05-02 23:01:00,30.7,28.7,30.48,NE,36,1.1,1.1,92,0.00,OVC,,0.75,0.0,WeatherDisplay:10.37,2013-05-03 04:01:00,
2013-05-02 23:06:00,30.7,28.7,30.47,NE,39,3.5,3.5,92,0.00,OVC,,0.75,0.0,WeatherDisplay:10.37,2013-05-03 04:06:00,
2013-05-02 23:11:00,30.8,28.8,30.47,NE,38,0.0,0.0,92,0.00,OVC,,0.75,0.0,WeatherDisplay:10.37,2013-05-03 04:11:00,
2013-05-02 23:16:00,30.8,28.8,30.47,NE,52,1.1,0.0,92,0.00,OVC,,0.75,0.0,WeatherDisplay:10.37,2013-05-03 04:16:00,
2013-05-02 23:21:00,30.8,28.8,30.46,NNE,32,3.5,3.5,92,0.00,OVC,,0.75,0.0,WeatherDisplay:10.37,2013-05-03 04:21:00,
2013-05-02 23:26:00,30.8,28.8,30.46,NNE,30,1.1,1.1,92,0.00,OVC,,0.75,0.0,WeatherDisplay:10.37,2013-05-03 04:26:00,
2013-05-02 23:31:00,30.8,28.8,30.46,NNE,29,0.0,0.0,92,0.00,-SN,,0.75,0.0,WeatherDisplay:10.37,2013-05-03 04:31:00,
2013-05-02 23:36:00,30.7,28.7,30.46,NE,55,1.1,1.1,92,0.00,-SN,,0.75,0.0,WeatherDisplay:10.37,2013-05-03 04:36:00,
2013-05-02 23:41:00,30.7,28.7,30.45,NE,41,1.1,0.0,92,0.00,-SN,,0.75,0.0,WeatherDisplay:10.37,2013-05-03 04:41:00,
2013-05-02 23:46:00,30.7,28.7,30.46,NW,323,1.1,1.1,92,0.00,-SN,,0.75,0.0,WeatherDisplay:10.37,2013-05-03 04:46:00,
2013-05-02 23:51:00,30.7,28.9,30.45,NE,50,1.1,1.1,93,0.00,-SN,,0.75,0.0,WeatherDisplay:10.37,2013-05-03 04:51:00,
2013-05-02 23:56:00,30.7,28.9,30.45,East,95,1.1,1.1,93,0.00,-SN,,0.75,0.0,WeatherDisplay:10.37,2013-05-03 04:56:00,